[Iaude] MPEC B54: 2024 BF1 [a=2.55,e=0.82,i=4.0,H=23.0]
    mpec at marsden.cfa.harvard.edu 
    mpec at marsden.cfa.harvard.edu
       
    Fri Jan 19 21:53:15 EST 2024
    
    
  
M.P.E.C. 2024-B54                              Issued 2024 January 20, 02:51 UT
     The Minor Planet Electronic Circulars contain information on unusual
         minor planets, routine data on comets and natural satellites,
         and occasional editorial announcements.  They are published
    on behalf of Division F of the International Astronomical Union by the
          Minor Planet Center, Smithsonian Astrophysical Observatory,
                          Cambridge, MA 02138, U.S.A.
			  
             Prepared using the Tamkin Foundation Computer Network
                              MPC at CFA.HARVARD.EDU
            URL https://www.minorplanetcenter.net/    ISSN 1523-6714
                                    2024 BF1                                    
Observations:
     K24B01F  C2024 01 06.42667908 32 09.848+13 43 48.95         21.82GVEB054F52
     K24B01F  C2024 01 06.43772908 32 09.307+13 43 48.57         22.04GVEB054F52
     K24B01F 1C2024 01 11.32275 08 27 29.24 +13 41 38.1                VEB054G96
     K24B01F 1C2024 01 11.32788 08 27 28.72 +13 41 39.2                VEB054G96
     K24B01F 1C2024 01 11.33304 08 27 28.36 +13 41 38.8                VEB054G96
     K24B01F* C2024 01 19.47263408 04 22.044+13 57 58.28         19.21oVEB054T05
     K24B01F  C2024 01 19.47686008 04 20.501+13 57 59.26         18.90oVEB054T05
     K24B01F  C2024 01 19.48002408 04 19.289+13 57 59.80         18.99oVEB054T05
     K24B01F  C2024 01 19.48330108 04 18.151+13 58 00.48         18.98oVEB054T05
     K24B01F  C2024 01 19.48375308 04 17.966+13 58 00.16         18.84oVEB054T05
     K24B01F  C2024 01 19.49110308 04 15.238+13 58 02.89         19.01oVEB054T05
     K24B01F  C2024 01 19.50388808 04 10.625+13 58 05.41         19.15oVEB054T05
     K24B01F 1C2024 01 19.85641 08 02 09.72 +13 59 07.2          19.6 VXEB054033
     K24B01F 1C2024 01 19.85664 08 02 09.66 +13 59 07.5          19.9 VXEB054033
     K24B01F 1C2024 01 19.85687 08 02 09.55 +13 59 07.8          19.9 VXEB054033
     K24B01F 1C2024 01 19.85788 08 02 09.16 +13 59 07.7          19.7 VXEB054033
     K24B01F KB2024 01 19.88201208 02 00.66 +13 59 20.4          18.8 GXEB054I93
     K24B01F KB2024 01 19.88609508 01 59.08 +13 59 21.6          18.9 GXEB054I93
     K24B01F KB2024 01 19.89016808 01 57.50 +13 59 23.1          19.3 GXEB054I93
     K24B01F KC2024 01 19.89794408 01 54.281+13 59 18.64         19.2 GVEB054J95
     K24B01F KC2024 01 19.90065008 01 53.208+13 59 19.64         19.1 GVEB054J95
     K24B01F KC2024 01 19.90334408 01 52.162+13 59 20.69         18.9 GVEB054J95
     K24B01F KC2024 01 19.97054408 01 24.98 +13 59 48.4          18.5 GVEB054L01
     K24B01F KC2024 01 19.97215208 01 24.37 +13 59 48.5          18.3 GVEB054L01
     K24B01F KC2024 01 19.97351008 01 23.80 +13 59 48.9          18.5 GVEB054L01
     K24B01F KB2024 01 20.05741 08 00 50.24 +14 00 11.4                VEB054204
     K24B01F KB2024 01 20.06592 08 00 46.79 +14 00 13.4          19.1 GVEB054204
     K24B01F KB2024 01 20.07443 08 00 43.32 +14 00 15.3                VEB054204
Observer details:
033 Karl Schwarzschild Observatory, Tautenburg.  Observers S. Melnikov, C.
    Hogner, F. Ludwig, M. Hartmann, B. Stecklum.  Measurer B. Stecklum.
    1.34-m f/3 Schmidt + CCD.
204 Schiaparelli Observatory.  Observers L. Buzzi, G. Galli.  0.84-m f/3.5
    reflector + CMO.
F52 Pan-STARRS 2, Haleakala.  Observers J. Herman, T. Lowe, P. Minguez, A.
    Schultz, I. Smith.  Measurers K. Chambers, T. de Boer, J. Fairlamb, H.
    Gao, M. Huber, C.-C. Lin, E. Magnier, Y. Ramanjooloo, R. Wainscoat, R.
    Weryk.  1.8-m Ritchey-Chretien + CCD.
G96 Mt. Lemmon Survey.  Observer J. K. Hogan.  Measurers B. Gray, D. Rankin,
    F. C. Shelly.  1.5-m reflector + 10K CCD.
I93 St Pardon de Conques.  Observer F. Losse.  0.40-m f/3.7 reflector + CMO.
J95 Great Shefford.  Observer P. Birtwhistle.  0.41-m f/6.3 Schmidt-Cassegrain
    + CCD.
L01 Visnjan Observatory, Tican.  Observer K. Korlevic.  1.0-m f/2.9 reflector
    + CCD.
T05 ATLAS-HKO, Haleakala.  Observers L. Denneau, R. Siverd, J. Tonry, H.
    Weiland.  Measurers L. Denneau, N. Erasmus, A. Fitzsimmons, A. Lawrence,
    J. Robinson, R. Siverd, J. Tonry, H. Weiland.  0.5-m Reflector + CCD.
Orbital elements:
2024 BF1                                                 Earth MOID = 0.0043 AU
Epoch 2023 Sept. 13.0 TT = JDT 2460200.5                Veres                   
M 316.54283              (2000.0)            P               Q                  
n   0.24154399     Peri.   97.84142     -0.67888844     +0.73220672             
a   2.5535159      Node   129.25243     -0.69839243     -0.62099036             
e   0.8226314      Incl.    4.04504     -0.22662412     -0.27972182             
P   4.08           H   23.00          G   0.15           U   8                  
Residuals in seconds of arc
240106 F52  0.1+  0.0     240119 T05  0.6-  0.4+    240119 J95  0.1-  0.0
240106 F52  0.1-  0.1+    240119 T05  0.1+  0.1-    240119 J95  0.2-  0.1+
240111 G96  0.4-  0.7-    240119 033  0.0   0.2-    240119 L01  0.2-  0.2+
240111 G96  1.0-  0.2+    240119 033  0.4+  0.1+    240119 L01  0.3+  0.1-
240111 G96  0.7+  0.3-    240119 033  0.1+  0.3+    240119 L01  0.1-  0.1-
240119 T05  0.7+  0.3+    240119 033  0.1+  0.1-    240120 204  0.1-  0.2+
240119 T05  0.6+  0.2+    240119 I93  0.1+  0.1+    240120 204  0.0   0.0
240119 T05  0.3-  0.0     240119 I93  0.1+  0.1-    240120 204  0.2-  0.2-
240119 T05  0.5+  0.1-    240119 I93  0.0   0.0
240119 T05  0.2+  0.6-    240119 J95  0.3+  0.2-
Ephemeris:
2024 BF1                 a,e,i = 2.55, 0.82, 4                   q = 0.4529
Date    TT    R. A. (2000) Decl.     Delta      r    Elong.  Phase     V
2023 12 21    08 33 32.6 +14 19 25   0.6257  1.5227   141.2    23.9    24.0
...
2024 01 05    08 32 57.7 +13 45 29   0.3612  1.3218   156.2    17.5    22.3
...
2024 01 13    08 24 54.9 +13 42 41   0.2312  1.2089   165.7    11.6    20.9
...
2024 01 19    08 06 54.0 +13 56 05   0.1385  1.1215   173.2     5.9    19.4
2024 01 20    08 01 14.2 +14 00 33   0.1235  1.1067   173.6     5.7    19.1
2024 01 21    07 54 00.9 +14 05 50   0.1086  1.0919   173.0     6.3    18.9
...
2024 01 27    04 38 57.6 +11 39 06   0.03052 1.0015   123.0    55.5    17.4
...
2024 02 04    21 49 34.2 -10 57 06   0.1099  0.8784    11.7   166.8    32.2
...
2024 02 19    21 12 07.1 -12 37 12   0.3552  0.6479    13.3   159.4    30.6
M. P. C. Staff               (C) Copyright 2024 MPC           M.P.E.C. 2024-B54
    
    
More information about the Iaude
mailing list